Theta_e
306 306 307 306 306 305 306 305 296 307 313 296 298 291 292 293 293 295 293 293 291 289 290 288 288 288 292 295 296 292 297 294 292 295 302 303 302 301 301 297 297 299 300 299
306 306 306 307 306 306 305 300 301 308 306 291 290 293 292 294 292 293 291 290 293 294 290 287 290 291 296 295 294 293 297 294 289 292 299 301 299 302 304 304 304 299 297 299
307 306 306 307 307 306 305 301 295 301 304 297 292 289 291 290 294 293 295 292 293 291 290 293 289 290 293 295 295 297 295 294 293 288 294 298 297 300 303 303 299 300 300 302
307 307 307 307 307 306 306 303 296 297 292 294 292 291 291 289 288 293 295 292 291 291 288 289 289 291 293 294 296 295 294 291 294 294 296 298 299 300 302 301 303 300 302 302
306 307 307 307 307 306 305 297 295 298 294 294 291 292 290 289 291 291 290 290 293 293 289 291 288 290 292 291 294 294 297 292 294 290 295 298 298 300 301 303 303 303 304 303
306 307 307 307 307 306 303 304 302 296 293 293 290 291 291 290 292 294 295 293 293 292 293 296 297 297 297 296 293 292 292 294 291 286 294 296 293 299 301 302 305 304 300 305
306 307 307 307 308 307 307 305 302 295 290 293 292 292 292 292 293 290 295 296 294 297 302 302 300 299 297 297 296 296 292 292 292 289 292 286 298 305 304 303 305 307 306 307
305 306 307 307 308 308 305 308 301 296 289 293 293 293 293 295 296 294 295 297 301 302 299 292 291 291 292 293 295 296 297 292 289 286 289 296 298 303 302 302 302 308 307 307
304 305 306 307 307 308 307 307 307 299 291 294 296 293 293 291 291 294 295 301 304 302 294 291 286 284 288 286 290 296 296 296 289 291 288 285 296 305 308 308 299 308 309 309
304 305 306 306 307 308 308 306 311 301 293 298 297 293 292 295 294 290 294 297 298 301 291 287 286 287 292 285 287 288 291 291 289 290 292 295 300 306 307 297 298 309 310 311
304 304 305 306 306 307 307 306 312 302 296 299 300 299 296 296 295 290 296 295 297 295 289 288 287 287 289 287 288 289 288 288 291 293 291 288 303 305 301 304 309 310 310 311
303 304 305 305 306 306 307 304 310 309 298 299 305 305 306 304 301 294 293 295 294 294 288 291 290 288 290 289 286 294 288 291 288 291 288 297 302 302 306 308 309 309 310 311
304 304 305 305 305 306 306 307 306 303 298 301 303 300 307 307 305 304 290 294 296 297 297 291 289 287 292 287 289 290 293 296 291 293 294 297 300 303 304 307 307 311 311 312
305 305 305 305 305 305 305 305 308 303 300 293 299 309 304 309 308 303 300 296 298 298 297 293 293 291 297 293 292 291 293 294 292 291 294 300 301 303 304 306 309 310 312 312
305 305 305 306 304 305 305 306 310 309 301 295 298 306 308 307 305 306 301 298 295 295 295 296 296 297 297 297 296 293 296 292 291 290 296 297 300 304 306 306 307 309 310 311
306 305 304 304 305 304 305 301 310 310 308 295 293 306 304 305 307 305 305 303 301 299 299 298 301 301 297 294 291 297 298 300 300 296 301 303 305 305 307 306 309 310 310 312
305 305 305 304 307 309 306 303 307 309 308 297 295 297 304 306 306 306 306 306 302 301 299 299 299 298 298 296 290 296 298 300 301 303 302 299 302 302 306 308 309 310 311 313
305 304 304 306 307 307 306 309 307 309 304 300 293 296 299 307 299 299 303 301 304 304 300 301 298 299 299 292 294 298 298 299 301 301 303 304 306 307 306 308 309 309 309 311
304 304 305 308 308 304 305 307 305 309 303 295 296 295 294 303 300 302 301 302 296 305 300 300 298 296 289 292 294 296 299 297 299 303 303 304 305 305 305 305 306 308 308 310
304 305 307 302 304 305 306 303 298 299 300 300 297 301 298 302 300 296 298 301 298 294 299 303 298 293 299 299 300 300 303 302 301 299 301 303 303 302 305 305 307 308 308 309
307 303 302 304 305 305 302 296 295 297 294 300 301 301 298 306 296 295 298 295 299 292 296 297 294 292 296 301 301 304 305 306 303 302 303 304 305 304 304 305 307 309 309 310
300 300 302 303 299 298 294 295 298 297 295 301 298 300 302 303 305 296 297 291 295 289 301 297 289 296 299 300 300 302 303 303 303 305 303 305 306 307 306 306 306 307 309 311
303 296 292 294 298 289 290 288 293 295 299 300 301 298 302 303 303 296 294 287 289 300 295 293 296 299 300 302 301 301 303 303 303 303 304 305 304 306 307 304 306 307 308 309
298 294 289 293 292 294 296 296 297 301 301 300 301 299 299 301 296 296 288 294 297 288 288 289 297 301 301 302 302 302 303 303 302 303 305 305 307 305 304 304 305 304 305 308
297 296 287 293 298 300 301 301 301 303 303 302 300 299 300 298 293 295 291 289 286 291 292 301 304 304 304 303 304 303 302 304 304 305 305 305 305 306 306 306 305 305 305 306
298 297 295 300 298 298 299 300 299 302 303 304 301 295 294 292 295 290 288 288 286 291 301 302 305 304 305 306 306 305 305 305 304 305 305 305 305 305 306 306 307 305 305 303
294 296 301 300 300 300 301 301 301 304 301 296 296 291 290 300 292 290 295 290 298 301 301 303 305 304 305 308 307 306 306 305 305 305 305 305 306 306 306 304 306 306 304 304
Wind_Speed
18 17 18 20 20 22 14 7 4 6 2 4 3 7 18 16 20 14 18 11 16 17 15 13 11 9 5 3 10 10 12 8 16 22 28 31 31 29 30 18 24 17 12 4
15 16 17 19 18 14 10 7 3 7 2 5 8 13 18 15 15 16 16 11 13 17 16 11 8 8 9 8 6 5 7 12 14 6 16 31 31 32 26 28 18 19 11 6
15 16 18 19 18 16 9 6 4 3 1 3 8 14 16 15 7 18 15 19 5 9 16 11 8 9 2 7 13 14 7 13 19 6 10 21 30 34 30 27 17 18 18 14
16 16 18 18 17 19 9 3 6 5 6 8 11 14 17 16 12 9 17 11 10 14 17 17 9 9 10 4 7 5 5 18 23 4 22 28 27 30 27 31 22 16 20 11
17 17 17 16 15 18 7 6 6 8 13 8 11 11 14 14 19 9 13 14 20 16 16 16 16 12 9 7 2 6 6 13 19 9 20 29 19 29 25 26 20 19 13 16
17 16 18 17 13 10 4 2 5 3 11 8 6 9 14 20 18 10 13 16 18 16 15 17 20 19 16 15 15 11 9 11 3 6 18 25 16 22 28 22 25 17 11 9
18 16 16 17 12 9 6 3 5 4 9 11 9 15 17 17 17 17 20 11 13 13 20 18 20 20 20 19 17 13 10 14 4 4 14 11 11 12 18 21 20 18 12 13
19 18 16 16 15 9 8 2 3 2 8 15 13 14 16 17 16 14 15 14 12 15 14 11 10 9 14 17 18 16 13 5 5 3 10 16 3 5 3 19 12 13 8 5
19 18 17 15 15 11 9 5 4 4 5 6 19 13 16 13 14 13 13 18 16 7 3 6 10 4 4 2 8 10 7 4 2 6 8 5 8 9 7 3 13 9 7 7
19 18 18 17 16 13 9 8 7 4 6 13 11 12 9 10 9 7 14 18 11 3 3 3 5 5 6 0 3 6 4 3 9 9 9 9 12 13 2 11 9 5 7 7
21 19 17 17 16 14 9 7 8 6 5 17 14 8 12 12 8 5 12 11 4 5 6 4 4 4 5 4 3 5 3 2 5 5 4 5 19 5 5 7 6 7 7 9
20 21 19 17 17 15 10 10 4 4 4 13 20 20 17 13 12 4 3 8 14 5 4 3 4 3 4 6 3 3 1 4 4 5 2 11 7 13 13 13 8 9 8 8
21 21 21 18 16 14 10 10 3 3 4 12 9 7 5 1 5 8 2 3 5 4 3 3 3 4 2 4 5 3 5 7 4 3 6 9 11 13 13 10 12 10 9 8
22 21 21 19 17 13 11 8 6 3 5 5 3 6 1 5 8 11 11 5 5 5 5 4 4 3 2 5 3 3 5 6 8 2 7 9 1 11 11 9 12 14 11 10
24 23 22 21 18 12 9 8 9 7 5 6 10 14 5 5 8 8 11 10 7 4 4 6 3 4 3 3 3 5 4 4 3 3 4 5 11 14 9 10 12 12 13 12
26 26 24 23 19 7 4 6 8 8 4 3 5 7 4 7 6 6 9 7 7 5 6 5 3 2 6 3 3 8 8 9 7 4 8 11 12 7 8 10 11 11 12 12
25 25 23 22 11 8 4 7 4 7 5 3 6 4 4 2 4 3 4 5 5 4 4 4 5 3 4 5 5 14 13 14 11 9 8 10 6 10 10 10 9 9 11 9
27 25 23 10 2 9 6 4 3 4 4 3 4 5 2 3 3 1 3 3 3 3 2 4 5 3 5 4 11 13 9 12 11 11 12 11 12 11 7 8 11 10 10 10
28 23 8 4 5 2 4 4 5 5 4 3 5 3 2 3 1 5 3 3 3 1 2 1 3 3 3 5 12 9 7 6 10 11 10 12 14 13 9 7 10 11 10 11
28 11 8 4 4 2 5 3 3 4 4 5 7 3 3 4 2 3 4 5 4 1 2 1 1 3 4 2 4 4 8 9 11 13 14 14 12 11 16 13 9 10 11 11
5 5 3 7 6 4 4 4 5 5 5 7 7 3 6 4 3 1 3 4 4 2 2 2 2 2 4 5 4 6 8 7 4 6 11 10 12 11 11 13 13 14 15 13
8 9 8 4 3 4 6 6 5 5 5 7 5 3 4 3 1 1 2 2 4 3 2 1 2 3 5 6 9 9 7 12 10 5 6 11 11 10 12 12 12 11 12 14
2 3 4 3 5 3 7 6 5 3 6 5 4 3 2 3 2 1 0 2 4 7 3 1 3 8 4 5 5 6 9 11 12 11 13 12 13 15 11 11 12 16 13 13
5 3 5 7 6 7 7 7 4 4 1 5 2 3 4 4 2 2 3 4 0 3 3 3 4 5 6 4 4 8 10 10 10 14 14 14 14 13 13 12 13 14 15 14
5 5 7 9 9 7 4 6 2 2 4 3 4 5 3 4 3 3 2 3 4 5 3 0 1 4 4 4 4 4 6 9 11 11 12 13 12 13 16 15 14 11 14 16
5 8 7 8 6 8 8 7 6 5 5 2 3 5 3 5 4 4 5 4 5 3 2 5 2 3 4 5 3 4 6 7 8 10 10 9 10 12 13 15 14 13 14 15
7 7 10 12 10 8 8 5 5 5 6 7 3 4 4 0 4 3 4 5 3 5 4 1 4 4 4 2 2 2 4 4 6 7 8 10 10 10 11 13 13 13 14 16
Wind_Direction
345 343 338 333 338 336 311 279 277 62 285 303 239 288 336 309 300 302 304 322 295 305 312 295 289 279 314 206 296 294 262 292 258 226 217 216 216 214 204 223 212 236 256 146
345 336 330 329 337 343 326 297 253 142 285 339 324 324 311 302 329 318 310 303 313 316 311 297 286 343 38 338 318 316 8 238 254 259 249 195 221 209 205 219 223 209 230 146
341 337 332 334 333 333 308 289 290 129 91 335 305 324 309 319 333 323 316 305 321 295 310 310 276 339 114 325 275 271 295 261 259 253 255 198 214 203 206 201 218 194 227 119
338 335 329 336 333 326 298 295 34 12 302 329 324 300 287 301 336 292 303 300 295 288 316 313 343 326 301 331 256 247 261 249 243 274 294 301 211 207 197 193 206 203 196 193
338 335 329 332 336 326 272 328 341 345 297 282 298 307 304 329 331 325 311 322 318 311 298 312 310 304 306 276 331 244 256 275 254 279 274 281 209 214 202 196 199 223 182 193
336 334 329 332 335 329 321 9 279 293 292 277 300 299 322 311 311 312 291 301 306 312 315 321 309 301 288 272 289 289 295 281 229 236 257 261 213 203 195 199 194 215 192 196
333 332 330 330 327 322 300 330 292 292 293 313 319 306 309 308 314 292 298 302 298 313 318 300 277 250 256 258 255 252 260 287 248 269 249 219 201 205 199 192 194 203 224 195
335 330 328 327 326 312 286 217 266 266 286 319 297 330 313 318 312 315 314 326 328 306 311 302 298 240 222 232 232 233 229 261 274 253 231 103 67 141 171 186 144 28 323 268
335 332 329 325 324 318 280 254 193 254 294 290 330 324 314 310 323 312 329 335 325 322 305 300 281 291 155 302 283 208 194 200 235 262 230 168 319 15 19 348 102 41 6 22
330 331 328 326 320 317 291 276 195 249 271 271 318 308 308 301 305 289 299 336 311 347 323 281 300 306 339 57 227 187 191 259 245 260 245 115 335 322 292 210 78 31 31 37
323 326 326 322 317 315 302 284 186 229 258 294 286 298 290 286 285 287 328 309 14 306 360 331 341 325 333 317 22 351 299 228 215 231 237 102 340 53 6 56 73 41 28 33
319 321 324 323 317 309 309 266 163 203 230 281 299 287 276 275 278 276 276 293 316 349 354 321 304 295 299 318 83 61 233 357 319 38 43 294 25 53 38 9 38 29 14 12
316 318 319 318 316 306 280 285 129 201 260 279 242 252 221 267 268 151 223 279 350 293 96 298 284 287 293 323 46 330 12 8 328 306 11 321 53 36 21 13 352 359 8 5
314 315 314 314 315 304 277 245 240 214 298 276 326 208 68 118 158 177 201 242 282 273 277 249 253 259 338 353 340 57 1 346 338 19 6 308 256 8 354 4 351 345 360 349
313 315 315 315 313 296 269 254 262 231 278 309 311 308 247 151 183 209 207 223 248 266 269 236 292 291 348 181 307 55 59 357 355 358 5 301 305 316 351 346 344 334 342 338
314 316 316 315 308 262 194 232 202 213 185 274 296 348 204 138 219 230 204 207 228 250 290 313 318 297 324 296 96 40 21 358 359 303 301 297 296 286 330 332 327 337 317 326
313 313 313 312 294 207 272 14 17 139 151 235 280 286 228 339 204 289 244 204 237 246 269 293 317 303 294 322 38 357 357 350 337 318 335 316 316 323 316 311 318 321 321 330
312 313 313 306 150 256 227 115 181 189 248 241 273 281 24 344 332 263 283 276 262 266 287 320 342 5 359 35 347 338 345 335 325 343 327 303 294 293 327 329 322 328 327 341
308 314 291 225 234 264 53 97 160 231 283 258 233 260 330 241 46 292 227 221 260 111 34 299 318 63 37 290 311 323 330 332 320 324 315 330 335 334 336 335 322 321 331 326
302 288 209 160 38 38 161 174 205 204 220 231 260 277 273 287 45 309 357 281 289 236 96 154 344 65 341 123 358 351 344 22 1 356 355 346 342 341 330 328 331 320 320 317
311 332 320 6 116 239 217 232 221 176 226 207 234 318 313 114 319 267 288 291 304 279 117 288 33 75 22 10 330 39 333 3 46 20 360 351 335 346 342 334 341 338 333 329
319 303 299 307 263 231 231 223 203 222 242 168 254 60 342 70 316 292 285 274 306 289 9 288 197 97 75 26 16 19 12 20 21 19 7 0 359 353 2 360 352 336 321 312
187 205 235 224 219 245 224 211 222 236 175 210 207 230 66 129 252 186 355 266 248 328 272 241 108 118 116 55 18 9 30 27 3 17 42 30 360 355 15 5 351 348 345 349
251 241 246 223 201 229 220 248 268 58 305 250 274 282 154 193 211 195 224 232 196 263 257 203 94 51 77 99 30 2 8 19 10 12 30 6 16 19 19 11 14 3 351 348
261 211 244 226 237 277 252 256 266 215 258 271 237 234 212 184 221 210 250 235 242 221 231 189 12 12 359 360 359 36 4 8 10 15 33 11 2 13 20 22 14 5 3 356
249 237 259 255 264 254 226 222 246 249 199 222 258 263 235 214 190 176 218 240 229 240 222 275 32 50 335 333 304 20 28 7 7 4 28 12 360 4 15 19 26 19 11 10
232 239 240 263 280 272 295 293 229 221 221 230 201 233 240 60 225 201 179 216 240 225 237 34 45 306 313 350 281 25 34 359 17 17 9 25 3 5 5 12 7 26 27 12